Aérodrome :
LOGIN :

S'inscrire | Disclaimer

   EN    FR    IT 

 










Légende :    VFR   VFR Marginal   IFR   IFR Intensif   IFR Très Intensif
Visi : 
Plafond : 
>= 8 km
>= 3000ft
5 à 8 km
1000 à 3000 ft
1500m à 5 km
500 à 1000 ft
800 à 1500m
200 à 500 ft
< 800m
< 200 ft
Symboles :   Orages  Brouillard  Fortes neiges  Fortes précipitations  Vent > 20 kt
SIGMETs :   Divers  Orages  Givrage  Turbulence  Onde Orograph.  Cendres Volcan.






- Altitude de l'aérodrome : 436 ft
- Code IATA : ANG


LFBU - Angoulême Brie Champniers

DERNIER METAR :
  • 060300Z AUTO 16010KT 130V190 CAVOK 13/M01 Q1017

METARs EXPIRÉS :
  • 060230Z AUTO 16010KT CAVOK 13/M01 Q1017
  • 060200Z AUTO 18008KT 150V210 CAVOK 13/M01 Q1016
  • 060130Z AUTO 15012KT 110V170 CAVOK 14/M01 Q1016
  • 060100Z AUTO 15013KT CAVOK 14/M01 Q1016
  • 060030Z AUTO 14014KT 100V170 CAVOK 14/M01 Q1016

Prévision TAF périmée.



MET'MAP, la Météo Aéronautique d'un coup d'oeil ! - Copyright ORBIFLY Décembre 2007 - Disclaimer

ORBIFLY MET'MAP TEAM :

Programmation & Développement : Alexandra Zaïnal
Sur une idée originale de : Baudouin d'Aumeries
Assistance à la programmation : Marc-Olivier Méhu
Soutien technique & logistique : Manuel Goepfert

Contact : metmap@orbifly.com




SOURCES & CREDITS :

   NOAA